Starlink 31923

operational
NORAD ID: 60600 Int'l Des: 2024-150 Owner: SPXS Country: US Constellation: starlink
LEOCIRCULAR

Starlink 31923について

説明を読み込み中...

リアルタイム位置

3D地球を読み込み中...

次回通過

高度履歴

Altitude vs Time

uPlot chart will show altitude changes over time

軌道要素

1 60600U 24150T 25354.62261183 -.00000714 00000-0 -11991-4 0 9991
2 60600 53.1635 314.4417 0001677 99.6562 260.4628 15.30191513 75930
Epoch: Dec 20, 2025 • Age: 10 hours

現在のステータス

高度 492.8 km
速度 7.62 km/s
衛星直下点 -48.41°S, 78.14°E
打ち上げ日 Aug 20, 2024
運用期間 1.3 years
タイプ internet

技術仕様

分類 Payload
質量 730.00 kg
乾燥質量 700.00 kg
総質量 730.00 kg
長さ 0.30 m
直径 4.10 m
スパン 29.00 m
形状 Box + pan
製造者 SPXS
バスタイプ Starlink V2M
フェーズステータス In Orbit
所有者/国 SPXS/US

大規模コンステレーション

Loading constellations...